Weather Roundup
Issued by NWS Corpus Christi, TX

Home | Current Version | Previous Version | Text Only | Print | Product List | Glossary On
Versions: 1 2 3 4 5 6 7 8 9 10 11 12 13 14 15 16 17 18 19 20 21 22 23 24 25 26 27 28 29 30 31 32 33 34 35 36 37 38 39 40 41 42 43 44 45 46 47 48 49 50
000
ASUS44 KCRP 291110
HRRCRP

SOUTH TEXAS REGIONAL WEATHER ROUNDUP
NATIONAL WEATHER SERVICE CORPUS CHRISTI TX
600 AM CDT THU JUN 29 2017


TXZ229>244-291200-
...CORPUS CHRISTI AREA OBSERVATIONS...

CITY           SKY/WX    TMP DP  RH WIND       PRES   REMARKS
CORPUS CHRISTI PTCLDY    76  76 100 S5        29.83R
NAS CORPUS CHR CLEAR     83  79  88 S12       29.83R HX  94
ROCKPORT       CLEAR     79  76  90 S3        29.83S
KINGSVILLE NAS PTCLDY    78  78 100 SE6       29.84R
ALICE          CLEAR     74  74 100 SE6       29.83R FOG
ORANGE GROVE   CLEAR     74  74 100 S6        29.84R FOG
FALFURRIAS     CLEAR     77  76  95 SE6       29.83R
$$

...VICTORIA AREA OBSERVATIONS...

CITY           SKY/WX    TMP DP  RH WIND       PRES   REMARKS
VICTORIA       MOCLDY    75  73  93 CALM      29.85R
BEEVILLE       FAIR     N/A N/A N/A CALM      29.84S FOG
PLEASANTON     CLEAR     74  73  98 E3        29.85S
SAN ANTONIO    CLEAR     73  71  93 CALM      29.87R
$$

...LAREDO AREA OBSERVATIONS...

CITY           SKY/WX    TMP DP  RH WIND       PRES   REMARKS
LAREDO         CLEAR     78  74  87 SE9       29.83R
COTULLA        CLEAR     75  72  90 E5        29.82R
DEL RIO        CLEAR     76  71  85 E8        29.82R
MCALLEN        CLEAR     81  76  84 S12       29.83R
HEBBRONVILLE   CLEAR     74  73  95 S3        29.85R FOG
$$

...OTHER TEXAS OBSERVATIONS...

CITY           SKY/WX    TMP DP  RH WIND       PRES   REMARKS
BROWNSVILLE    CLEAR     79  77  94 S9        29.84R
HOUSTON        PTCLDY    75  73  93 SE3       29.86R
COL. STATION   CLOUDY    75  72  90 E3        29.87R
AUSTIN         CLOUDY    76  75  97 S5        29.86S
WACO           CLOUDY    75  73  93 S10       29.87R
FORT WORTH     PTCLDY    76  72  87 S16       29.84R
WICHITA FALLS  CLEAR     72  68  87 S9        29.82R
LUBBOCK        PTCLDY    73  62  68 S12       29.86R
EL PASO        PTCLDY    86  36  16 NW17G23   29.93R
$$

...MARINE OBSERVATIONS...

STATION/POSITION TIME  SKY/WX   TEMP    WIND        PRES    VSBY  WAVE   SWELL
                                AIR SEA DIR/SP/G                  HT/PER HT/PER
                 (UTC)          (F)     (DEG/KT/KT) (MB)    (MI)  (FT/S) (FT/S)
PORT ARANSAS     1100            84 85  180/ 19/ 20 1010.1R
BUOY 90 E PORT A 0950            83 83  180/ 17/ 21 1010.5          4/ 5
BUOY 45 SE BAFFI 0950            84     180/ 17/ 19 1009.2          4/ 5
BUOY 200 E PT IS 0950            83 83  170/ 16/ 19 1012.2          4/ 6
BUOY 15 E GALVES 0950            81 83  190/ 21/ 27 1009.8          5/ 5
$$




USA.gov is the U.S. government's official web portal to all federal, state and local government web resources and services.